Location: Newark
(42.8481°N, 0.4872°E)
Time: 23:44:13
(UTC+00:00)

Vanguard 1 - Pass Details

Date: 04 November 2020
Orbit: 650 x 3833 km, 34.2° (Epoch: 29 November)

Event Time Altitude Azimuth Distance (km) Brightness Sun altitude
Rises 18:54:37 0° 282° (WNW) 7,780 16.0 -23.9°
Reaches altitude 10° 19:04:02 10° 263° (W) 6,267 15.2 -25.6°
Maximum altitude 19:12:07 14° 237° (WSW) 5,268 14.4 -27.1°
Drops below altitude 10° 19:18:48 10° 210° (SSW) 4,980 13.9 -28.3°
Sets 19:24:39 0° 188° (S) 5,318 13.8 -29.4°
